Flag for Madagascar Weather past 2 weeks in Antananarivo, Madagascar

Now
72 °F

Partly sunny.


Feels Like: 69 °F
Forecast: 65 / 77 °F
Wind: 15 mph from Southeast

Location: Antananarivo / Ivato

Current Time: Jan 26, 2015 at 6:03:10 PM

Latest Report: Jan 26, 2015 at 5:30 PM


Visibility: N/A

Pressure: 30.12 "Hg

Humidity: 88%

Dew point: 68 °F

Location of AntananarivoLocation

Historic Weather in Antananarivo — Graph

°F

Antananarivo temperature yesterday

Maximum temperature yesterday: 77 °F (at 11:30 AM)
Minimum temperature yesterday: 63 °F (at 12:00 AM)
Average temperature yesterday: 69 °F

Past Weeks' High & Low Weather Summary

 TemperatureHumidityPressure
High86 °F (Jan 20, 1:30 PM)100% (Jan 11, 5:00 PM)30.39 "Hg (Jan 11, 5:00 PM)
Low61 °F (Jan 24, 2:00 AM)58% (Jan 19, 3:00 PM)29.71 "Hg (Jan 17, 2:30 AM)
Average70 °F95%30.03 "Hg
* Reported Jan 11 5:00 PM — Jan 26 5:00 PM, Antananarivo, Weather by CustomWeather, © 2014

Note: Actual official high and low records may vary slightly from our data, if they occured in-between our weather recording intervals... More about our weather records

Advertising

Antananarivo weather history for previous 24 hours

 ConditionsComfort  
Time TempWeatherWind HumidityBarometerVisibility
5:00 PM
Jan 26
73 °FPartly sunny.13 mph83%30.12 "HgN/A
4:30 PM73 °FPartly sunny.15 mph83%30.15 "HgN/A
4:00 PM77 °FPartly sunny.13 mph79%30.12 "HgN/A
3:30 PM77 °FPartly sunny.16 mph74%30.15 "HgN/A
3:00 PM77 °FBroken clouds.16 mph79%30.15 "HgN/A
2:30 PM77 °FBroken clouds.17 mph83%30.15 "HgN/A
2:00 PM77 °FBroken clouds.15 mph83%30.15 "HgN/A
1:30 PM77 °FBroken clouds.15 mph89%30.15 "HgN/A
1:00 PM73 °FBroken clouds.10 mph100%30.15 "HgN/A
12:30 PM70 °FBroken clouds.9 mph100%30.18 "HgN/A
12:00 PM70 °FDrizzle. Broken clouds.6 mph100%30.18 "Hg5 mi
11:30 AM68 °FDrizzle. Broken clouds.13 mph100%30.18 "Hg3 mi
11:00 AM70 °FDrizzle. Broken clouds.9 mph100%30.18 "Hg3 mi
10:30 AM75 °FScattered showers. Broken clouds.8 mph94%30.18 "Hg6 mi
10:00 AM73 °FDrizzle. Broken clouds.10 mph94%30.18 "Hg5 mi
9:30 AM72 °FBroken clouds.10 mph100%30.18 "HgN/A
9:00 AM73 °FBroken clouds.10 mph94%30.18 "HgN/A
8:30 AM72 °FBroken clouds.12 mph100%30.18 "HgN/A
8:00 AM70 °FBroken clouds.9 mph100%30.18 "HgN/A
7:30 AM68 °FScattered showers. Partly sunny.9 mph100%30.15 "HgN/A
7:00 AM66 °FScattered showers. Partly sunny.9 mph100%30.15 "HgN/A
6:30 AM66 °FPartly sunny.8 mph100%30.15 "HgN/A
6:00 AM66 °FRain. Partly sunny.7 mph100%30.15 "HgN/A
5:30 AM66 °FRain. Passing clouds.6 mph100%30.12 "HgN/A
5:00 AM66 °FPassing clouds.7 mph100%30.12 "HgN/A
4:30 AM64 °FPassing clouds.6 mph100%30.12 "HgN/A
4:00 AM64 °FPassing clouds.6 mph100%30.12 "HgN/A
3:30 AM64 °FPartly cloudy.7 mph100%30.12 "Hg5 mi
3:00 AM64 °FPartly cloudy.7 mph100%30.12 "Hg5 mi
2:30 AM66 °FPartly cloudy.6 mph100%30.12 "HgN/A
2:00 AM66 °FPassing clouds.7 mph100%30.12 "HgN/A
1:30 AM66 °FPassing clouds.6 mph100%30.15 "HgN/A
1:00 AM66 °FPassing clouds.6 mph100%30.15 "HgN/A
12:30 AM66 °FPassing clouds.6 mph100%30.15 "HgN/A
12:00 AM66 °FPassing clouds.6 mph100%30.18 "HgN/A
11:30 PM
Jan 25
68 °FPassing clouds.5 mph100%30.18 "HgN/A
11:00 PM68 °FPassing clouds.7 mph100%30.18 "HgN/A
10:30 PM68 °FPassing clouds.7 mph100%30.18 "HgN/A
10:00 PM68 °FPassing clouds.7 mph100%30.18 "HgN/A
9:30 PM68 °FPassing clouds.8 mph100%30.18 "HgN/A
9:00 PM68 °FPassing clouds.7 mph100%30.18 "HgN/A
8:30 PM68 °FPartly cloudy.6 mph100%30.15 "HgN/A
8:00 PM68 °FPartly cloudy.7 mph100%30.15 "HgN/A
7:30 PM68 °FPassing clouds.7 mph100%30.15 "HgN/A
7:00 PM68 °FPartly cloudy.5 mph100%30.15 "HgN/A
6:30 PM68 °FBroken clouds.7 mph100%30.15 "HgN/A
6:00 PM68 °FBroken clouds.8 mph100%30.15 "HgN/A
Weather by CustomWeather, © 2014

See weather overviewHow to use our weather pages